Regional Weather Roundup
Issued by NWS

Home | Current Version | Previous Version | Text Only | Print | Product List | Glossary On
Versions: 1 2 3 4 5 6 7 8 9 10 11 12 13 14 15 16 17 18 19 20 21 22 23 24 25 26 27 28 29 30 31 32 33 34 35 36 37 38 39 40 41 42 43 44 45 46 47 48 49 50
000
ASUS45 KBOU 310507
RWRCO

WEATHER ROUNDUP FOR COLORADO
NATIONAL WEATHER SERVICE DENVER/BOULDER CO
1000 PM MST FRI JAN 30 2015

NOTE: "FAIR" INDICATES FEW OR NO CLOUDS BELOW 12000 FEET WITH NO
SIGNIFICANT WEATHER AND/OR OBSTRUCTIONS TO VISIBILITY.

COZ001>005-013-030-031-310600-
...NORTHWEST COLORADO...

CITY           SKY/WX    TMP DP  RH WIND       PRES   REMARKS
CRAIG          CLOUDY    33  30  88 CALM      29.96F
HAYDEN         CLOUDY    34  28  80 S3        29.96S
MEEKER         LGT RAIN  34  33  96 CALM      29.96S FOG
MOUNT WERNER   NOT AVBL
STEAMBOAT SPGS CLOUDY    33  29  86 CALM      29.95F
WALDEN         CLOUDY    30  27  86 SE5       29.99F WCI  25
$$

COZ006>008-011-310600-
...WEST CENTRAL VALLEYS...

CITY           SKY/WX    TMP DP  RH WIND       PRES   REMARKS
GRAND JUNCTION LGT RAIN  39  39 100 NE3       29.96R
MONTROSE       CLOUDY    39  37  92 CALM      29.97F
EAGLE          SNOW      34  32  93 CALM      29.99F VSB 1/2
RIFLE          LGT RAIN  37  35  92 CALM      29.96S
DELTA          LGT RAIN  41  41  99 CALM      29.96F
NUCLA          LGT RAIN  36  34  93 CALM      30.00F
$$

COZ017>023-064>068-310600-
...SOUTHWEST COLORADO...

CITY           SKY/WX    TMP DP  RH WIND       PRES   REMARKS
DURANGO        MIX PCPN  32  32 100 E3        30.00F
CORTEZ         LGT RAIN  36  34  92 W7        29.97S
PAGOSA SPRINGS MIX PCPN  34  34 100 CALM      30.02F
TELLURIDE      CLOUDY    32  32 100 E8        29.97F WCI  25
WOLF CREEK PAS SNOW      23  23 100 SW8       30.08F VSB 1/4 WCI  14
$$

COZ009-010-012-014-032>034-037-058>063-310600-
...CENTRAL COLORADO...

CITY           SKY/WX    TMP DP  RH WIND       PRES   REMARKS
ASPEN          CLOUDY    31  30  96 CALM      29.95F
BUENA VISTA    LGT SNOW  31  30  96 CALM      30.05F
COPPER MTN     CLOUDY    27  19  74 SE7       30.04F WCI  19
BERTHOUD PASS  HAZE      14   9  79 E36       30.06S VSB<1/4 WCI  -8
COTTONWOOD PAS LGT SNOW  30  28  93 CALM      30.06F
GUNNISON       CLOUDY    34  28  80 N8        30.02S WCI  27
KREMMLING      CLOUDY    30  27  86 CALM      30.01F
LEADVILLE      LGT SNOW  24  24 100 S10       30.02S FOG     WCI  14
MONARCH PASS   CLOUDY    21  19  93 MISG      30.15F
SALIDA         CLOUDY    33  32  97 CALM      30.13F VSB 1
SUNLIGHT       LGT SNOW  30  28  93 CALM        N/A
WILKERSON PASS LGT SNOW N/A N/A N/A E3        30.10F
$$

COZ069>075-310600-
...SAN LUIS VALLEY/SANGRE DE CRISTO MOUNTAINS...

CITY           SKY/WX    TMP DP  RH WIND       PRES   REMARKS
ALAMOSA        CLOUDY    30  28  92 CALM      30.04F
LA VETA PASS   LGT SNOW  27  25  93 NE8       30.07F VSB 3/4 WCI  18
SAGUACHE       NOT AVBL
$$

COZ035-036-038>040-310600-
...NORTHERN COLORADO FRONT RANGE...

CITY           SKY/WX    TMP DP  RH WIND       PRES   REMARKS
DENVER INTL AP CLOUDY    37  26  64 N8        30.05F
DMNS CITY PARK   N/A     40  24  51 N2        30.06S
AURORA         MOCLDY    36  27  71 N6        30.07S
FRONT RANGE AP NOT AVBL
ERIE MUNI ARPT CLOUDY    38  28  69 N6        30.07F
BOULDER MUN AP CLOUDY    41  27  56 N5        30.07S
CENTENNIAL     CLOUDY    38  26  62 NW5       30.06F
BROOMFIELD     CLOUDY    39  27  60 N8        30.07F
FORT COLLINS   CLOUDY    36  25  64 CALM      30.09F
LONGMONT       CLOUDY    42  28  55 NW5       30.09F
$$

COZ041-046-047-076>085-087-088-310600-
...PIKES PEAK/PALMER DIVIDE AND SOUTHERN FOOTHILLS...

CITY           SKY/WX    TMP DP  RH WIND       PRES   REMARKS
COLO. SPRINGS  CLOUDY    38  31  76 NW16      30.06F
A. F. ACADEMY  CLOUDY    34  31  91 N12       30.06F WCI  25
ELLICOTT       CLOUDY   N/A N/A N/A NW10      30.04F
FALCON         CLOUDY    34  29  82 NW14      30.06F WCI  24
FORT CARSON    CLOUDY    39  31  72 N13       30.04S
LIMON          FOG       32  32 100 CALM      30.05S VSB 3/4
MONUMENT HILL  CLOUDY    32  28  86 W9        30.05F WCI  24
TRINIDAD       LGT RAIN  34  31  88 W15       30.05S WCI  24
$$

COZ042>045-048>051-090-091-310600-
...NORTHEAST COLORADO...

CITY           SKY/WX    TMP DP  RH WIND       PRES   REMARKS
GREELEY ARPT   CLOUDY    37  25  60 NW7       30.05F
AKRON          CLOUDY    33  29  85 W6        30.02F WCI  28
BURLINGTON     CLOUDY    34  31  88 S14       30.07F WCI  25
WRAY           CLOUDY    37  33  86 S5        30.07F
STERLING       CLOUDY    34  30  86 N7        30.04F WCI  28
HOLYOKE        NOT AVBL
FORT MORGAN    CLOUDY    36  27  71 N10       30.05F
$$

COZ086-089-092>099-310600-
...SOUTHEAST COLORADO...

CITY           SKY/WX    TMP DP  RH WIND       PRES   REMARKS
PUEBLO         CLOUDY    38  36  92 E3        30.05F
LA JUNTA       CLOUDY    38  36  92 E3        30.05F
LAMAR          CLOUDY    37  35  92 S6        30.06F
SPRINGFIELD      N/A     33  33 100 S16       30.09F WCI  23
$$


USA.gov is the U.S. government's official web portal to all federal, state and local government web resources and services.